Regional Weather Roundup
Issued by NWS Upton, NY

Current Version | Previous Version | Graphics & Text | Print | Product List | Glossary On
Versions: 1 2 3 4 5 6 7 8 9 10 11 12 13 14 15 16 17 18 19 20 21 22 23 24 25 26 27 28 29 30 31 32 33 34 35 36 37 38 39 40 41 42 43 44 45 46 47 48 49 50
000
ASUS41 KOKX 261907
RWROKX

REGIONAL WEATHER ROUNDUP
NATIONAL WEATHER SERVICE NEW YORK NY
300 PM EDT THU MAR 26 2015

NOTE: "FAIR" INDICATES FEW OR NO CLOUDS BELOW 12,000 FEET WITH NO
SIGNIFICANT WEATHER AND/OR OBSTRUCTIONS TO VISIBILITY.

NYZ071-072-176-178-NJZ106-104-262000-
NEW YORK CITY METRO AREA


CITY           SKY/WX    TMP DP  RH WIND       PRES   REMARKS
CENTRAL PARK   CLOUDY    51  48  89 VRB5      29.74F FOG
LAGUARDIA APRT CLOUDY    51  48  89 SE9       29.71F FOG
KENNEDY INTL   LGT RAIN  52  48  87 S22       29.73F FOG
NEWARK/LIBERTY CLOUDY    51  49  92 CALM      29.72F FOG
BRNX BOT. GARD   N/A     48  46  93 SE3       29.72F
TETERBORO      LGT RAIN  51  48  89 CALM      29.71F FOG
$$

NYZ177-179-078>081-262000-
LONG ISLAND NEW YORK

CITY           SKY/WX    TMP DP  RH WIND       PRES   REMARKS
FARMINGDALE    CLOUDY    55  53  93 SW22G30   29.74F
ISLIP          TSTM      53  50  89 SW23G30   29.74F VSB 3/4
SHIRLEY        LGT RAIN  50  49  96 SW10G21   29.78F VSB 1/4
WESTHAMPTON    LGT RAIN  48  47  96 SW7       29.78F VSB 1/4
MONTAUK POINT    N/A     46  45  96 S6        29.79F
$$

NYZ052-065-067-262000-
HUDSON VALLEY

CITY           SKY/WX    TMP DP  RH WIND       PRES   REMARKS
WHITE PLAINS   LGT RAIN  46  45  96 SE7       29.70F VSB 1/4
NEWBURGH       CLOUDY    50  46  87 CALM      29.70F FOG
MONTGOMERY     LGT RAIN  47  45  93 SW5       29.69F FOG
POUGHKEEPSIE   LGT RAIN  49  44  83 CALM      29.69F
ALBANY         LGT RAIN  42  39  89 NE6       29.74F VSB 3/4
$$

NJZ001-105-106-008-010-013-015-019>022-104-262000-
NEW JERSEY

CITY           SKY/WX    TMP DP  RH WIND       PRES   REMARKS
NEWARK/LIBERTY CLOUDY    51  49  92 CALM      29.72F FOG
TETERBORO      LGT RAIN  51  48  89 CALM      29.71F FOG
CALDWELL       LGT RAIN  49  46  90 NW8       29.73F VSB 1
MORRISTOWN     LGT RAIN  48  48 100 CALM      29.74F VSB 1
SOMERVILLE     LGT RAIN  48  45  89 CALM      29.71F FOG
SUSSEX         CLOUDY    47  45  93 SW3       29.70F FOG
ANDOVER          N/A     48  48 100 CALM      29.70F
TRENTON        CLOUDY    56  54  93 W3        29.71F FOG
MILLVILLE      LGT RAIN  62  58  86 S10       29.74F
ATLANTIC CITY  CLOUDY    61  57  87 S18G26    29.76F
WRIGHTSTOWN    LGT RAIN  65  64  97 SW18G24   29.69F
TOMS RIVER     PTSUNNY   68  57  68 SW21G31   29.73F
BELMAR         CLOUDY    64  57  77 S14G26    29.71F
$$

PAZ047>061-062-071-262000-
EASTERN PENNSYLVANIA

CITY           SKY/WX    TMP DP  RH WIND       PRES   REMARKS
PHILADELPHIA   CLOUDY    64  59  83 S15G21    29.70F
ALLENTOWN      CLOUDY    48  45  89 N3        29.70F FOG
SCRANTON       CLOUDY    60  50  69 S15G22    29.63F
$$

CTZ002-004>006-009-010-012-RIZ004-006-007-MAZ004-011-015-262000-
SOUTHERN NEW ENGLAND
 IN CT

CITY           SKY/WX    TMP DP  RH WIND       PRES   REMARKS
BRADLEY INTL   CLOUDY    47  44  90 S12       29.73F FOG
HARTFORD       CLOUDY    47  45  93 S7        29.73F FOG
DANBURY        LGT RAIN  46  43  89 SE7       29.72F VSB 1
WTRBRY/OXFORD  LGT RAIN  48  43  81 S6        29.74F VSB 1/4
BRIDGEPORT     FOG       42  41  96 NE5       29.75F VSB 1/4
MERIDEN        CLOUDY    47  46  97 VRB6      29.74F FOG
NEW HAVEN      CLOUDY    45  44  97 SE5       29.74F FOG
CHESTER        DRZL/FOG  46  46 100 S7        29.76F VSB<1/4
GROTON         LGT RAIN  45  44  97 S8        29.77F VSB 1/4
WILLIMANTIC    CLOUDY    47  45  93 S3        29.75F FOG

 IN RI

CITY           SKY/WX    TMP DP  RH WIND       PRES   REMARKS
PROVIDENCE     LGT RAIN  49  47  93 S8        29.77F
BLOCK ISLAND   CLOUDY    45  43  93 S10       29.79F VSB 1/4
WESTERLY       LGT RAIN  43  43 100 S6        29.79F VSB 1/4

 IN MA

CITY           SKY/WX    TMP DP  RH WIND       PRES   REMARKS
BOSTON         LGT RAIN  51  49  92 S12       29.74F FOG
WORCESTER      LGT RAIN  45  43  93 SW12      29.72F VSB 1/2
WESTFIELD      LGT RAIN  45  43  93 S3        29.74F FOG
PROVINCETOWN   CLOUDY    45  43  93 S16G22    29.78F
NANTUCKET      FOG       46  45  96 S12       29.83F VSB<1/4
$$

ANZ330-335-338-340-345-350-353-355-262000-
COASTAL MARINE OBSERVATIONS


STATION/POSITION TIME  SKY/WX   TEMP    WIND        PRES    VSBY  WAVE
                                AIR SEA DIR/SP/G                  HT/PER
                 (UTC)          (F)     (DEG/KT/KT) (MB)    (MI)  (FT/S)
NY HARB ENTRANCE 1850            45 38  190/ 21/ 27 1006.5          5/ 7
4S FIRE IS       1803               37                N/A           5/ 7
20S FIRE ISLAND  1750               39              1010.2          6/ 8
23SW MTP         1850                                 N/A           5/ 8
HUDSON CANYON    NOT AVBL
EXECUTION ROCKS  NOT AVBL
WESTERN LI SOUND NOT AVBL
CENTRAL LI SOUND NOT AVBL
EASTERN LI SOUND NOT AVBL
ROBBINS REEF     1800            43     200/  9/ 10 1006.5
$$


>>>>>>>>>>>>>>>>>>>>>>>>>>>> KEY <<<<<<<<<<<<<<<<<<<<<<<<<<<
>                                                          <
>     SKY/WX - SKY CONDITION/PRESENT WEATHER               <
>     TMP    - TEMPERATURE IN FAHRENHEIT                   <
>     DP     - DEWPOINT IN FAHRENHEIT                      <
>     RH     - RELATIVE HUMIDITY IN PERCENT                <
>     WIND   - DIRECTION AND SPEED IN MPH                  <
>     PRES   - MEAN SEA LEVEL PRESSURE IN INCHES OF HG     <
>     WCI    - WIND CHILL INDEX                            <
>     VSB    - VISIBILITY IN MILES                         <
>     HX     - HEAT INDEX                                  <
>     TC     - TEMPERATURE IN CELSIUS                      <
>     VRB    - VARIABLE WIND DIRECTION                     <
>                                                          <
>>>>>>>>>>>>>>>>>>>>>>>>>>>> KEY <<<<<<<<<<<<<<<<<<<<<<<<<<<




USA.gov is the U.S. government's official web portal to all federal, state and local government web resources and services.